| time (UTC) | temp F | wind direction | speed knots | gust knots | rain 1hr in | rain 24hr in | rain mn in | humidity % | barometer mb |
| 20260504050305 | 53 | 54 | 5.2 | 11.3 | 0.00 | 0.00 | 0.00 | 44 | 1011.4 |
| 20260504045805 | 53 | 43 | 2.6 | 13.0 | 0.00 | 0.00 | 0.00 | 44 | 1011.3 |
| 20260504045305 | 53 | 41 | 7.0 | 13.9 | 0.00 | 0.00 | 0.00 | 44 | 1011.1 |
| 20260504044805 | 53 | 77 | 4.3 | 13.9 | 0.00 | 0.00 | 0.00 | 45 | 1011.2 |
| 20260504044305 | 53 | 41 | 6.1 | 11.3 | 0.00 | 0.00 | 0.00 | 45 | 1011.1 |
| 20260504043306 | 53 | 45 | 5.2 | 10.4 | 0.00 | 0.00 | 0.00 | 43 | 1011.0 |
| 20260504042805 | 54 | 47 | 5.2 | 11.3 | 0.00 | 0.00 | 0.00 | 43 | 1010.9 |
| 20260504042305 | 54 | 37 | 8.7 | 14.8 | 0.00 | 0.00 | 0.00 | 42 | 1010.9 |
| 20260504041805 | 54 | 32 | 6.1 | 11.3 | 0.00 | 0.00 | 0.00 | 42 | 1010.8 |
| 20260504041306 | 54 | 31 | 2.6 | 8.7 | 0.00 | 0.00 | 0.00 | 41 | 1010.6 |
| 20260504040805 | 54 | 56 | 6.1 | 13.0 | 0.00 | 0.00 | 0.00 | 41 | 1010.5 |
| 20260504035805 | 55 | 47 | 5.2 | 12.2 | 0.00 | 0.00 | 0.00 | 39 | 1010.1 |
| 20260504035306 | 55 | 65 | 4.3 | 8.7 | 0.00 | 0.00 | 0.00 | 38 | 1010.0 |
| 20260504034805 | 55 | 35 | 5.2 | 13.9 | 0.00 | 0.00 | 0.00 | 37 | 1009.8 |
| 20260504034305 | 55 | 50 | 6.1 | 13.0 | 0.00 | 0.00 | 0.00 | 37 | 1009.7 |
| 20260504033305 | 55 | 60 | 5.2 | 12.2 | 0.00 | 0.00 | 0.00 | 37 | 1009.5 |
| 20260504032804 | 56 | 51 | 6.1 | 13.9 | 0.00 | 0.00 | 0.00 | 36 | 1009.3 |
| 20260504032305 | 56 | 58 | 6.1 | 13.0 | 0.00 | 0.00 | 0.00 | 36 | 1009.1 |
| 20260504031806 | 56 | 39 | 6.1 | 13.9 | 0.00 | 0.00 | 0.00 | 36 | 1009.0 |
| 20260504031305 | 56 | 43 | 5.2 | 13.9 | 0.00 | 0.00 | 0.00 | 36 | 1008.8 |
| 20260504030805 | 57 | 52 | 5.2 | 11.3 | 0.00 | 0.00 | 0.00 | 36 | 1008.8 |
| 20260504030305 | 57 | 60 | 4.3 | 11.3 | 0.00 | 0.00 | 0.00 | 36 | 1008.6 |
| 20260504025806 | 57 | 47 | 4.3 | 11.3 | 0.00 | 0.00 | 0.00 | 36 | 1008.5 |
| 20260504024805 | 57 | 53 | 5.2 | 10.4 | 0.00 | 0.00 | 0.00 | 35 | 1008.3 |
| 20260504024305 | 58 | 60 | 5.2 | 10.4 | 0.00 | 0.00 | 0.00 | 35 | 1008.2 |
| 20260504023805 | 58 | 66 | 2.6 | 10.4 | 0.00 | 0.00 | 0.00 | 35 | 1008.0 |
| 20260504023305 | 58 | 60 | 2.6 | 11.3 | 0.00 | 0.00 | 0.00 | 35 | 1008.0 |
| 20260504022804 | 58 | 57 | 4.3 | 10.4 | 0.00 | 0.00 | 0.00 | 34 | 1007.9 |
| 20260504022305 | 58 | 50 | 3.5 | 8.7 | 0.00 | 0.00 | 0.00 | 34 | 1007.8 |
| 20260504020805 | 59 | 71 | 5.2 | 10.4 | 0.00 | 0.00 | 0.00 | 34 | 1007.4 |
| 20260504020305 | 59 | 42 | 4.3 | 11.3 | 0.00 | 0.00 | 0.00 | 34 | 1007.3 |
| 20260504015806 | 60 | 55 | 5.2 | 11.3 | 0.00 | 0.00 | 0.00 | 33 | 1007.1 |
| 20260504015305 | 60 | 55 | 4.3 | 10.4 | 0.00 | 0.00 | 0.00 | 33 | 1007.1 |
| 20260504014805 | 60 | 70 | 5.2 | 11.3 | 0.00 | 0.00 | 0.00 | 32 | 1007.0 |
| 20260504014306 | 61 | 57 | 4.3 | 12.2 | 0.00 | 0.00 | 0.00 | 33 | 1007.0 |
| 20260504013305 | 62 | 66 | 6.1 | 10.4 | 0.00 | 0.00 | 0.00 | 31 | 1006.6 |
| 20260504012805 | 63 | 53 | 7.8 | 17.4 | 0.00 | 0.00 | 0.00 | 31 | 1006.5 |
| 20260504012306 | 63 | 64 | 5.2 | 13.0 | 0.00 | 0.00 | 0.00 | 31 | 1006.3 |
| 20260504011805 | 64 | 82 | 5.2 | 13.0 | 0.00 | 0.00 | 0.00 | 31 | 1006.2 |
| 20260504011305 | 64 | 46 | 5.2 | 12.2 | 0.00 | 0.00 | 0.00 | 31 | 1006.1 |
| 20260504010805 | 64 | 57 | 5.2 | 12.2 | 0.00 | 0.00 | 0.00 | 31 | 1005.9 |
| 20260504010306 | 64 | 39 | 6.1 | 17.4 | 0.00 | 0.00 | 0.00 | 31 | 1005.9 |
| 20260504005805 | 65 | 53 | 6.1 | 14.8 | 0.00 | 0.00 | 0.00 | 31 | 1005.8 |
| 20260504005306 | 65 | 38 | 7.0 | 10.4 | 0.00 | 0.00 | 0.00 | 31 | 1005.8 |
| 20260504004805 | 65 | 37 | 5.2 | 14.8 | 0.00 | 0.00 | 0.00 | 31 | 1005.7 |
| 20260504004306 | 65 | 54 | 6.1 | 15.6 | 0.00 | 0.00 | 0.00 | 30 | 1005.5 |
| 20260504003804 | 66 | 45 | 4.3 | 11.3 | 0.00 | 0.00 | 0.00 | 31 | 1005.5 |
| 20260504002807 | 66 | 48 | 5.2 | 15.6 | 0.00 | 0.00 | 0.00 | 30 | 1005.5 |
| 20260504002305 | 66 | 56 | 6.1 | 10.4 | 0.00 | 0.00 | 0.00 | 30 | 1005.4 |
| 20260504001305 | 67 | 38 | 5.2 | 12.2 | 0.00 | 0.00 | 0.00 | 30 | 1005.3 |
| 20260504000805 | 67 | 47 | 5.2 | 13.0 | 0.00 | 0.00 | 0.00 | 30 | 1005.2 |
| 20260504000306 | 67 | 46 | 5.2 | 8.7 | 0.00 | 0.00 | 0.00 | 30 | 1005.3 |
| 20260503235805 | 67 | 48 | 4.3 | 10.4 | 0.00 | 0.00 | 0.00 | 30 | 1005.2 |
| 20260503235305 | 67 | 32 | 6.1 | 12.2 | 0.00 | 0.00 | 0.00 | 29 | 1005.2 |
| 20260503234805 | 67 | 44 | 5.2 | 12.2 | 0.00 | 0.00 | 0.00 | 30 | 1005.3 |
| 20260503234306 | 67 | 43 | 6.1 | 17.4 | 0.00 | 0.00 | 0.00 | 30 | 1005.2 |
| 20260503233805 | 67 | 56 | 5.2 | 13.0 | 0.00 | 0.00 | 0.00 | 29 | 1005.2 |
| 20260503233305 | 67 | 37 | 7.8 | 12.2 | 0.00 | 0.00 | 0.00 | 29 | 1005.1 |
| 20260503232804 | 67 | 42 | 5.2 | 11.3 | 0.00 | 0.00 | 0.00 | 29 | 1005.0 |
| 20260503232306 | 68 | 37 | 8.7 | 13.9 | 0.00 | 0.00 | 0.00 | 29 | 1005.1 |
| 20260503231805 | 68 | 27 | 6.1 | 11.3 | 0.00 | 0.00 | 0.00 | 29 | 1005.1 |
| 20260503231305 | 69 | 57 | 6.1 | 13.9 | 0.00 | 0.00 | 0.00 | 28 | 1005.0 |
| 20260503230305 | 69 | 46 | 6.1 | 13.9 | 0.00 | 0.00 | 0.00 | 28 | 1005.0 |
| 20260503225805 | 68 | 44 | 6.1 | 14.8 | 0.00 | 0.00 | 0.00 | 28 | 1005.0 |
| 20260503225305 | 68 | 44 | 6.1 | 14.8 | 0.00 | 0.00 | 0.00 | 29 | 1005.1 |
| 20260503224806 | 69 | 38 | 7.0 | 14.8 | 0.00 | 0.00 | 0.00 | 28 | 1005.1 |
| 20260503224305 | 69 | 59 | 6.1 | 14.8 | 0.00 | 0.00 | 0.00 | 27 | 1005.0 |
| 20260503223805 | 70 | 35 | 5.2 | 13.9 | 0.00 | 0.00 | 0.00 | 27 | 1004.9 |
| 20260503223304 | 71 | 60 | 8.7 | 15.6 | 0.00 | 0.00 | 0.00 | 26 | 1004.9 |
| 20260503222806 | 71 | 60 | 7.0 | 18.2 | 0.00 | 0.00 | 0.00 | 26 | 1004.9 |
| 20260503222305 | 72 | 69 | 6.1 | 18.2 | 0.00 | 0.00 | 0.00 | 25 | 1004.8 |
| 20260503221805 | 72 | 50 | 5.2 | 13.9 | 0.00 | 0.00 | 0.00 | 25 | 1004.8 |
| 20260503221305 | 73 | 3 | 3.5 | 10.4 | 0.00 | 0.00 | 0.00 | 25 | 1004.7 |
| 20260503220806 | 73 | 37 | 3.5 | 10.4 | 0.00 | 0.00 | 0.00 | 25 | 1004.8 |
| 20260503220304 | 73 | 31 | 5.2 | 10.4 | 0.00 | 0.00 | 0.00 | 26 | 1004.8 |
| 20260503215805 | 73 | 64 | 4.3 | 10.4 | 0.00 | 0.00 | 0.00 | 24 | 1004.9 |
| 20260503215306 | 73 | 32 | 5.2 | 10.4 | 0.00 | 0.00 | 0.00 | 25 | 1004.9 |
| 20260503214805 | 72 | 28 | 2.6 | 7.8 | 0.00 | 0.00 | 0.00 | 26 | 1005.0 |
| 20260503214305 | 72 | 42 | 4.3 | 8.7 | 0.00 | 0.00 | 0.00 | 25 | 1005.0 |
| 20260503213805 | 72 | 75 | 2.6 | 7.8 | 0.00 | 0.00 | 0.00 | 24 | 1005.0 |
| 20260503213305 | 73 | 15 | 4.3 | 7.8 | 0.00 | 0.00 | 0.00 | 24 | 1005.2 |
| 20260503212805 | 72 | 36 | 5.2 | 10.4 | 0.00 | 0.00 | 0.00 | 25 | 1005.2 |
| 20260503211804 | 72 | 77 | 1.7 | 7.8 | 0.00 | 0.00 | 0.00 | 24 | 1005.2 |
| 20260503211305 | 72 | 23 | 3.5 | 12.2 | 0.00 | 0.00 | 0.00 | 24 | 1005.3 |
| 20260503210805 | 72 | 35 | 3.5 | 7.8 | 0.00 | 0.00 | 0.00 | 25 | 1005.3 |
| 20260503205805 | 72 | 60 | 4.3 | 10.4 | 0.00 | 0.00 | 0.00 | 25 | 1005.4 |
| 20260503205305 | 72 | 41 | 2.6 | 8.7 | 0.00 | 0.00 | 0.00 | 24 | 1005.5 |
| 20260503204805 | 71 | 44 | 2.6 | 8.7 | 0.00 | 0.00 | 0.00 | 26 | 1005.6 |
| 20260503204304 | 71 | 61 | 4.3 | 10.4 | 0.00 | 0.00 | 0.00 | 25 | 1005.5 |
| 20260503203806 | 71 | 49 | 4.3 | 10.4 | 0.00 | 0.00 | 0.00 | 25 | 1005.6 |
| 20260503203305 | 71 | 50 | 4.3 | 8.7 | 0.00 | 0.00 | 0.00 | 25 | 1005.7 |
| 20260503202305 | 71 | 55 | 5.2 | 10.4 | 0.00 | 0.00 | 0.00 | 26 | 1005.8 |
| 20260503201806 | 71 | 22 | 2.6 | 13.0 | 0.00 | 0.00 | 0.00 | 26 | 1005.8 |
| 20260503201305 | 71 | 56 | 4.3 | 7.8 | 0.00 | 0.00 | 0.00 | 25 | 1005.9 |
| 20260503200805 | 71 | 215 | 2.6 | 7.8 | 0.00 | 0.00 | 0.00 | 24 | 1005.9 |
| 20260503200305 | 70 | 59 | 2.6 | 7.8 | 0.00 | 0.00 | 0.00 | 27 | 1005.9 |
| 20260503195806 | 70 | 28 | 3.5 | 8.7 | 0.00 | 0.00 | 0.00 | 26 | 1006.0 |
| 20260503195305 | 71 | 47 | 2.6 | 10.4 | 0.00 | 0.00 | 0.00 | 26 | 1006.1 |
| 20260503194805 | 71 | 27 | 4.3 | 10.4 | 0.00 | 0.00 | 0.00 | 26 | 1006.2 |
| 20260503194305 | 71 | 41 | 4.3 | 10.4 | 0.00 | 0.00 | 0.00 | 25 | 1006.2 |
| 20260503193305 | 71 | 36 | 3.5 | 11.3 | 0.00 | 0.00 | 0.00 | 25 | 1006.2 |
| 20260503192805 | 71 | 28 | 1.7 | 7.8 | 0.00 | 0.00 | 0.00 | 24 | 1006.3 |
| 20260503191806 | 70 | 282 | 3.5 | 7.0 | 0.00 | 0.00 | 0.00 | 25 | 1006.5 |
| 20260503191305 | 70 | 37 | 2.6 | 7.8 | 0.00 | 0.00 | 0.00 | 25 | 1006.6 |
| 20260503190805 | 70 | 358 | 4.3 | 8.7 | 0.00 | 0.00 | 0.00 | 26 | 1006.6 |
| 20260503190305 | 70 | 26 | 3.5 | 7.8 | 0.00 | 0.00 | 0.00 | 26 | 1006.7 |
| 20260503185806 | 69 | 17 | 5.2 | 10.4 | 0.00 | 0.00 | 0.00 | 26 | 1006.9 |
| 20260503185305 | 69 | 1 | 4.3 | 7.8 | 0.00 | 0.00 | 0.00 | 26 | 1006.9 |
| 20260503184805 | 69 | 1 | 5.2 | 10.4 | 0.00 | 0.00 | 0.00 | 26 | 1007.1 |
| 20260503184305 | 69 | 27 | 3.5 | 7.8 | 0.00 | 0.00 | 0.00 | 27 | 1007.1 |
| 20260503183806 | 68 | 23 | 2.6 | 10.4 | 0.00 | 0.00 | 0.00 | 28 | 1007.2 |
| 20260503183305 | 68 | 44 | 2.6 | 10.4 | 0.00 | 0.00 | 0.00 | 28 | 1007.2 |
| 20260503182805 | 68 | 36 | 5.2 | 10.4 | 0.00 | 0.00 | 0.00 | 28 | 1007.3 |
| 20260503182305 | 68 | 30 | 4.3 | 7.8 | 0.00 | 0.00 | 0.00 | 28 | 1007.3 |
| 20260503181805 | 68 | 13 | 4.3 | 8.7 | 0.00 | 0.00 | 0.00 | 27 | 1007.5 |
| 20260503181306 | 68 | 44 | 3.5 | 10.4 | 0.00 | 0.00 | 0.00 | 27 | 1007.6 |
| 20260503180805 | 68 | 39 | 5.2 | 11.3 | 0.00 | 0.00 | 0.00 | 27 | 1007.6 |
| 20260503175806 | 68 | 52 | 4.3 | 7.8 | 0.00 | 0.00 | 0.00 | 26 | 1007.7 |
| 20260503175305 | 68 | 55 | 4.3 | 8.7 | 0.00 | 0.00 | 0.00 | 27 | 1007.8 |
| 20260503174805 | 68 | 21 | 4.3 | 8.7 | 0.00 | 0.00 | 0.00 | 26 | 1007.9 |
| 20260503174305 | 68 | 46 | 5.2 | 11.3 | 0.00 | 0.00 | 0.00 | 26 | 1007.9 |
| 20260503173806 | 68 | 21 | 5.2 | 10.4 | 0.00 | 0.00 | 0.00 | 27 | 1008.0 |
| 20260503173305 | 68 | 15 | 4.3 | 8.7 | 0.00 | 0.00 | 0.00 | 27 | 1008.1 |
| 20260503172305 | 68 | 0 | 5.2 | 10.4 | 0.00 | 0.00 | 0.00 | 28 | 1008.2 |
| 20260503171806 | 68 | 3 | 1.7 | 8.7 | 0.00 | 0.00 | 0.00 | 27 | 1008.3 |
| 20260503171305 | 68 | 16 | 4.3 | 7.8 | 0.00 | 0.00 | 0.00 | 27 | 1008.3 |
| 20260503170805 | 68 | 29 | 2.6 | 8.7 | 0.00 | 0.00 | 0.00 | 28 | 1008.3 |
| 20260503170305 | 67 | 18 | 4.3 | 12.2 | 0.00 | 0.00 | 0.00 | 28 | 1008.4 |
| 20260503150306 | 56 | 335 | 1.7 | 2.6 | 0.00 | 0.00 | 0.00 | 40 | 1009.3 |
| 20260503140305 | 50 | 330 | 0.0 | 0.0 | 0.00 | 0.00 | 0.00 | 45 | 1009.6 |
| 20260503131305 | 43 | 330 | 0.0 | 0.0 | 0.00 | 0.00 | 0.00 | 53 | 1009.7 |
| 20260503130805 | 43 | 330 | 0.0 | 0.0 | 0.00 | 0.00 | 0.00 | 55 | 1009.7 |
| 20260503110804 | 44 | 330 | 0.0 | 0.0 | 0.00 | 0.00 | 0.00 | 50 | 1009.8 |
| 20260503110305 | 44 | 330 | 0.0 | 0.0 | 0.00 | 0.00 | 0.00 | 49 | 1009.9 |
| 20260503090305 | 47 | 329 | 0.9 | 2.6 | 0.00 | 0.00 | 0.00 | 44 | 1009.8 |
| 20260503080805 | 49 | 268 | 0.0 | 0.9 | 0.00 | 0.00 | 0.00 | 40 | 1009.8 |
| 20260503080305 | 49 | 268 | 0.9 | 1.7 | 0.00 | 0.00 | 0.00 | 39 | 1009.8 |
| 20260503072805 | 51 | 262 | 0.0 | 1.7 | 0.00 | 0.00 | 0.00 | 36 | 1009.9 |
| 20260503071805 | 51 | 256 | 0.0 | 0.9 | 0.00 | 0.00 | 0.00 | 36 | 1009.8 |
| 20260503071305 | 51 | 256 | 0.0 | 0.9 | 0.00 | 0.00 | 0.00 | 36 | 1009.7 |
| 20260503070805 | 52 | 256 | 0.0 | 0.9 | 0.00 | 0.00 | 0.00 | 36 | 1009.8 |
| 20260503070305 | 52 | 256 | 0.0 | 1.7 | 0.00 | 0.00 | 0.00 | 36 | 1009.8 |